TimePDT,TemperatureF,Dew PointF,Humidity,Sea Level PressureIn,VisibilityMPH,Wind Direction,Wind SpeedMPH,Gust SpeedMPH,PrecipitationIn,Events,Conditions,WindDirDegrees,DateUTC
12:53 AM,48.0,45.0,89,30.19,10.0,WNW,5.8,-,N/A,,Clear,300,2013-05-10 07:53:00
1:53 AM,46.9,44.1,90,30.20,10.0,WNW,5.8,-,N/A,,Clear,290,2013-05-10 08:53:00
2:10 AM,46.9,44.1,90,30.20,10.0,WNW,5.8,-,N/A,,Scattered Clouds,290,2013-05-10 09:10:00
2:18 AM,46.9,45.0,93,30.20,10.0,West,6.9,-,N/A,,Mostly Cloudy,270,2013-05-10 09:18:00
2:42 AM,46.9,45.0,93,30.20,10.0,WNW,8.1,-,N/A,,Overcast,290,2013-05-10 09:42:00
2:53 AM,46.9,45.0,93,30.21,10.0,West,8.1,-,N/A,,Overcast,280,2013-05-10 09:53:00
3:53 AM,46.9,45.0,93,30.20,7.0,WNW,8.1,-,N/A,,Overcast,290,2013-05-10 10:53:00
4:27 AM,46.9,46.0,97,30.19,1.8,WNW,4.6,-,N/A,,Overcast,300,2013-05-10 11:27:00
4:53 AM,46.4,44.6,93,30.19,0.8,West,6.9,-,N/A,,Mist,270,2013-05-10 11:53:00
5:53 AM,46.4,44.6,93,30.20,0.2,WSW,3.5,-,N/A,Fog,Fog,240,2013-05-10 12:53:00
6:53 AM,46.0,45.0,96,30.21,0.2,WNW,3.5,-,N/A,Fog,Fog,300,2013-05-10 13:53:00
7:08 AM,46.0,45.0,96,30.21,0.2,Calm,Calm,-,N/A,Fog,Fog,0,2013-05-10 14:08:00
7:51 AM,46.4,46.4,100,30.22,0.2,WNW,5.8,-,N/A,Fog,Fog,300,2013-05-10 14:51:00
7:53 AM,46.9,46.0,97,30.22,0.2,WNW,4.6,-,N/A,Fog,Fog,300,2013-05-10 14:53:00
8:22 AM,46.9,46.0,97,30.22,0.8,WNW,3.5,-,N/A,,Mist,290,2013-05-10 15:22:00
8:30 AM,46.9,46.9,100,30.22,1.8,West,3.5,-,N/A,,Overcast,270,2013-05-10 15:30:00
8:37 AM,48.0,46.9,96,30.21,2.5,WSW,3.5,-,N/A,,Overcast,250,2013-05-10 15:37:00
8:44 AM,48.0,46.0,93,30.21,4.0,West,3.5,-,N/A,,Overcast,260,2013-05-10 15:44:00
8:53 AM,48.9,48.0,97,30.22,9.0,West,3.5,-,N/A,,Overcast,280,2013-05-10 15:53:00
9:22 AM,51.8,48.2,88,30.21,10.0,WNW,3.5,-,N/A,,Scattered Clouds,300,2013-05-10 16:22:00
9:53 AM,53.1,48.0,83,30.21,10.0,North,4.6,-,N/A,,Clear,350,2013-05-10 16:53:00
10:53 AM,53.1,48.0,83,30.22,10.0,North,5.8,-,N/A,,Clear,350,2013-05-10 17:53:00
11:53 AM,55.0,48.9,80,30.22,10.0,North,5.8,-,N/A,,Clear,360,2013-05-10 18:53:00
12:53 PM,57.0,48.9,74,30.21,10.0,North,4.6,-,N/A,,Clear,350,2013-05-10 19:53:00
1:53 PM,59.0,50.0,72,30.20,10.0,North,5.8,-,N/A,,Clear,360,2013-05-10 20:53:00
2:53 PM,59.0,50.0,72,30.19,10.0,WNW,4.6,-,N/A,,Clear,290,2013-05-10 21:53:00
3:53 PM,57.0,50.0,77,30.18,10.0,NW,5.8,-,N/A,,Clear,320,2013-05-10 22:53:00
4:53 PM,55.0,48.0,77,30.18,10.0,NW,5.8,-,N/A,,Clear,310,2013-05-10 23:53:00
5:53 PM,57.0,48.0,72,30.16,10.0,NW,4.6,-,N/A,,Clear,320,2013-05-11 00:53:00
6:53 PM,55.9,48.9,77,30.15,10.0,NW,4.6,-,N/A,,Clear,310,2013-05-11 01:53:00
7:53 PM,53.1,46.9,80,30.15,10.0,NW,4.6,-,N/A,,Clear,320,2013-05-11 02:53:00
8:53 PM,52.0,46.9,83,30.15,10.0,North,3.5,-,N/A,,Clear,350,2013-05-11 03:53:00
9:53 PM,50.0,46.9,89,30.16,10.0,West,4.6,-,N/A,,Clear,280,2013-05-11 04:53:00
10:53 PM,50.0,46.9,89,30.15,10.0,SW,3.5,-,N/A,,Clear,220,2013-05-11 05:53:00
11:53 PM,48.9,46.9,93,30.17,10.0,Calm,Calm,-,N/A,,Clear,0,2013-05-11 06:53:00